Airport Information

KYKM - Yakima Air Terminal McAllister Field Airport

KYKM 202253Z 23016G22KT 10SM SCT070 BKN085 14/03 A2974 RMK AO2 PK WND 20028/2242 SLP072 T01440028


  • General Information

  • Coordinates: N 46°34'5"/ W 120°32'38"
  • Location: N/A
  • Surveyed Elevation: 1095 MSL

Operations

Flow Name Active Runways Conditions

Green background denotes normal operations.


Common Frequencies

Callsign Frequency Position Name

More at the Document Center


Charts

Under Construction